Location: Unspecified
(52.4292°N, 19.3359°E)
Time: 23:37:20
(UTC+02:00)

Transit 2A Rocket - Pass Details

Date: 24 May 2024
Orbit: 583 x 910 km, 66.7° (Epoch: 12 June)

Event Time Altitude Azimuth Distance (km) Brightness Sun altitude
Rises 04:03:00 0° 197° (SSW) 2,988 - -4.5°
Exits shadow 04:03:18 - 196° (SSW) 2,876 7.4 -4.4°
Reaches altitude 10° 04:05:16 10° 191° (S) 2,126 6.8 -4.2°
Maximum altitude 04:09:53 46° 119° (ESE) 974 5.8 -3.7°
Drops below altitude 10° 04:15:00 10° 47° (NE) 2,349 9.6 -3.1°
Sets 04:17:36 0° 42° (NE) 3,336 10.9 -2.8°
